User: anonymous   Login
Location: Unspecified
(0.0000°N, 0.0000°E)
Time: 20:25:18
(UTC+00:00)
Language:

WGS F2 (USA 204) - Orbit

View from above orbital plane
View from above orbital plane
View from above satellite
View from above satellite

Ground track
Ground track

The orbit data is extracted from the following two-line orbital elements,

1 34713U 09017A   21136.55801465  .00000076  00000-0  00000-0 0  9995
2 34713   0.0683 100.1766 0000481 264.2863 128.4212  1.00271854 26996
Epoch (UTC): 16 May 2021 13:23:32
Eccentricity: 0.0000481
inclination: 0.0683°
perigee height: 35784 km
apogee height: 35788 km
right ascension of ascending node: 100.1766°
argument of perigee: 264.2863°
revolutions per day: 1.00271854
mean anomaly at epoch: 128.4212°
orbit number at epoch: 2699

The dashed part of the orbit path shows where the satellite is in the earth's shadow,  

DLR